#timestamp,LO_Frequency,Hit,StdDev 
1623639615.2,286046999.1,N
1623639635.9,286046999.3,N
1623639655.7,286046999.0,N
1623639675.6,286046999.1,N
1623639695.4,286046998.4,N
1623639715.2,286047000.7,N
1623639735.1,286046999.7,N
1623639736.0,286046999.7,N
1623639755.8,286046999.8,N
1623639775.7,286046999.8,N
1623639795.5,286047000.2,N
1623639815.3,286047000.9,N
1623639835.2,286047000.6,N
1623639855.0,286046998.4,N
1623639855.9,286046998.4,N
1623639875.8,286046999.2,N
1623639895.6,286046998.1,N
1623639915.4,286047002.7,N
1623639935.3,286047000.2,N
1623639955.1,286047000.7,N
1623639956.0,286047000.7,N
1623639975.8,286046999.6,N
1623639995.7,286046999.1,N
1623640015.5,286047001.0,N
1623640035.3,286047001.0,N
1623640055.2,286046999.7,N
1623640075.0,286046999.7,N
1623640075.9,286046999.7,N
1623640095.8,286047002.3,N
1623640115.6,286047000.3,N
1623640135.4,286047000.3,N
1623640155.3,286047001.2,N
1623640175.1,286047000.0,N
1623640195.9,286046999.7,N
1623640215.7,286047000.9,N
1623640235.5,286046999.7,N
1623640255.4,286047002.3,N
1623640275.2,286047001.3,N
1623640295.0,286047002.3,N
1623640295.9,286047002.3,N
1623640315.8,286047001.8,N
1623640335.6,286046999.7,N
1623640355.5,286047002.4,N
1623640375.3,286047002.4,N
1623640395.1,286047002.6,N
1623640415.9,286047002.4,N
1623640435.7,286047000.1,N
1623640455.5,286046999.8,N
1623640475.4,286047000.2,N
1623640495.2,286047000.2,N
1623640515.0,286047000.0,N
1623640516.0,286047000.0,N
1623640535.8,286047000.4,N
1623640555.6,286047000.6,N
1623640575.5,286047000.6,N
1623640595.3,286047000.1,N
1623640615.1,286047001.1,N
1623640635.9,286047000.5,N
1623640655.7,286046999.9,N
1623640675.6,286047001.2,N
1623640695.4,286046998.1,N
1623640715.2,286047000.9,N
1623640735.1,286047001.0,N
1623640736.0,286047001.0,N
1623640755.8,286047000.6,N
1623640775.7,286046998.2,N
1623640795.5,286047000.9,N
1623640815.3,286046999.9,N
1623640835.2,286047000.3,N
1623640855.0,286047000.5,N
1623640855.9,286047000.5,N
1623640875.7,286047000.0,N
1623640895.6,286046999.8,N
1623640915.4,286047000.1,N
1623640935.3,286047000.2,N
1623640955.1,286047001.9,N
1623640975.9,286047002.0,N
1623640995.7,286047004.1,Y
1623641015.5,286047002.8,P
1623641035.4,286047002.2,N
1623641055.2,286047001.6,N
1623641075.0,286047001.8,N
1623641075.9,286047001.8,N
1623641095.8,286047003.8,Y
1623641115.6,286047000.2,P
1623641135.5,286047002.2,N
1623641155.3,286047002.6,N
1623641175.1,286047001.6,N
1623641195.9,286047001.4,N
1623641215.7,286047002.4,Y
1623641235.5,286046998.3,P
1623641255.4,286046998.1,N
1623641275.2,286046998.6,N
1623641295.1,286046998.1,N
1623641296.0,286046998.1,N
1623641315.8,286047000.6,N
1623641335.6,286047000.1,N
1623641355.5,286046998.4,N
1623641375.3,286046998.6,N
1623641395.1,286046997.0,N
1623641415.9,286046997.7,N
1623641435.7,286046995.2,Y
1623641455.6,286046995.0,P
1623641475.4,286046994.9,N
1623641495.2,286046996.2,N
1623641515.1,286046996.0,N
1623641516.0,286046996.0,N
1623641535.8,286046993.5,Y
1623641555.7,286046996.6,P
1623641575.5,286046996.6,P
1623641595.3,286046996.8,P
1623641615.2,286046997.3,Y
1623641635.9,286047000.0,P
1623641655.7,286047002.5,N
1623641675.6,286047002.1,N
1623641695.4,286047002.0,N
1623641715.3,286046999.8,N
1623641735.1,286046999.7,N
1623641736.0,286046999.7,N
1623641755.8,286047000.9,N
1623641775.7,286047000.2,N
1623641795.5,286047000.7,N
1623641815.3,286047001.0,N
1623641835.2,286046998.6,N
1623641855.0,286046998.2,N
1623641855.9,286046998.2,N
1623641875.8,286046996.9,N
1623641895.6,286046995.4,N
1623641915.4,286046997.6,N
1623641935.3,286046999.6,N
1623641955.1,286046996.6,N
1623641975.8,286046998.9,N
1623641995.7,286046998.6,N
1623642015.5,286046999.6,N
1623642035.3,286046997.2,N
1623642055.2,286046999.4,N
1623642075.0,286046996.9,N
1623642075.9,286046996.9,N
1623642095.8,286046999.0,N
1623642115.6,286046999.4,N
1623642135.4,286046996.5,N
1623642155.3,286046997.8,N
1623642175.1,286046995.5,N
1623642195.8,286046998.0,N
1623642215.7,286046995.0,N
1623642235.5,286046995.0,N
1623642255.4,286046998.0,N
1623642275.2,286046995.9,N
1623642295.0,286046995.0,N
1623642295.9,286046995.0,N
1623642315.8,286046993.3,Y
1623642335.6,286046997.4,P
1623642355.5,286046995.1,P
1623642375.3,286046997.0,N
1623642395.1,286046998.9,N
1623642415.9,286046999.4,N
1623642435.7,286046999.3,N
1623642455.5,286047001.0,N
1623642475.4,286047000.1,N
1623642495.2,286047002.3,N
1623642515.1,286047004.2,N
1623642516.0,286047004.2,N
1623642535.8,286047001.5,N
1623642555.6,286047002.4,N
1623642575.5,286047000.6,N
1623642595.3,286046999.7,N
1623642615.2,286047000.3,N
1623642635.9,286046999.9,N
1623642655.7,286047000.4,N
1623642675.6,286046999.8,N
1623642695.4,286046998.6,N
1623642715.2,286047001.0,N
1623642735.1,286047002.7,N
1623642736.0,286047002.7,N
1623642755.8,286047002.0,N
1623642775.7,286047001.0,N
1623642795.5,286047000.8,N
1623642815.3,286047002.3,N
1623642835.2,286046999.8,N
1623642855.9,286047002.4,N
1623642875.7,286047002.3,N
1623642895.6,286047002.2,N
1623642915.4,286047002.5,N
1623642935.3,286047002.5,N
1623642955.1,286047000.1,N
1623642956.0,286047000.1,N
1623642975.8,286047002.5,N
1623642995.7,286047000.1,N
1623643015.5,286047002.2,N
1623643065.4,286047001.4,E
1623643075.3,286047002.8,N
1623643095.1,286047000.1,P
1623643115.9,286047001.1,N
1623643135.7,286046996.7,N
1623643155.5,286046999.5,N
1623643175.4,286046996.7,N
1623643195.2,286046999.3,N
